Tracking 34717 objects as of 14-Jul-2026
HD Live streaming from Space Station
objects crossing your sky now

ATLAS 2AS CENTAUR R/B

Track ATLAS 2AS CENTAUR R/B now!
10-day predictions


NORAD ID: 26072
Int'l Code: 2000-007B
Perigee: 257.6 km
Apogee: 6,097.2 km
Inclination: 18.1 °
Period: 154.8 minutes
Semi major axis: 9548 km
RCS: 16.571 m2 (large)
Launch date: February 3, 2000
Source: United States (US)
Launch site: AIR FORCE EASTERN TEST RANGE (AFETR)

Note: This is a ROCKET BODY
Your satellite tracking list
Your tracking list is empty




NASA's NSSDC Master Catalog

Two Line Element Set (TLE):
1 26072U 00007B   26195.51381210  .00043221  00000-0  11487-2 0  9993
2 26072  18.0636 139.9290 3057911  70.3658 319.8632  9.30481116359081
Source of the keplerian elements: AFSPC